P/2019 T6 ( PanSTARRS )

Japanese version
Home page
Updated on December 24, 2019

---------------------------------------------------------------------

* Profile

Discovery Date October 8, 2019
Magnitude 19.6 mag
Discoverer Pan-STARRS 2 telescope (Haleakala)

* Pictures

* Orbital Elements

Epoch 2019 Nov. 13.0 TT = JDT 2458800.5
T 2019 Nov. 7.74721 TT                                  Williams
q   2.0518770            (2000.0)            P               Q
n   0.07787558     Peri.  328.90334     +0.73780393     -0.60286328
a   5.4308587      Node    71.31225     +0.66625283     +0.57814221
e   0.6221818      Incl.   18.69596     +0.10840907     +0.54982493
P  12.7
From 129 observations 2019 Oct. 8-Dec. 2, mean residual 0".4.

* Magnitudes Graph

        m1 = 15.0 + 5 log d + 10.0 log r

---------------------------------------------------------------------

The orbital elements are published on M.P.E.C. 2019-X94.
The magnitudes graphs are made with Comet for Windows.

---------------------------------------------------------------------

Copyright(C) Seiichi Yoshida (comet@aerith.net). All rights reserved.